Regional Weather Roundup
Issued by NWS

Home | Current Version | Previous Version | Graphics & Text | Print | Product List | Glossary Off
Versions: 1 2 3 4 5 6 7 8 9 10 11 12 13 14 15 16 17 18 19 20 21 22 23 24 25 26 27 28 29 30 31 32 33 34 35 36 37 38 39 40 41 42 43 44 45 46 47 48 49 50

000
ASUS43 KLSX 301059
RWRMO

WEATHER SUMMARY FOR MISSOURI
NATIONAL WEATHER SERVICE SPRINGFIELD MO
500 AM CST FRI JAN 30 2015

NOTE: "FAIR" INDICATES FEW OR NO CLOUDS BELOW 12,000 FEET WITH NO
       SIGNIFICANT WEATHER AND/OR OBSTRUCTIONS TO VISIBILITY.
       CURRENT SKY AND/OR WEATHER CONDITIONS ARE NOT AVAILABLE FOR
       CHILLICOTHE AND FARMINGTON.

MOZ001>031-035>038-043-044-053-054-301200-
...NORTHERN AND WESTERN MISSOURI...

CITY           SKY/WX    TMP DP  RH WIND       PRES   REMARKS
KANSAS CTY INT CLEAR     20  18  92 N6        30.53F WCI  12
KANSAS C DTWN  CLEAR     26  22  84 N3        30.54F
LEE`S SUMMIT   CLEAR     25  21  85 N5        30.53S WCI  19
ST JOSEPH      FOG       14  11  87 N6        30.56S VSB 1/2 WCI   5
CHILLICOTHE      N/A     24  18  77 N3        30.55S
KIRKSVILLE     CLEAR     21  18  88 N9        30.52S WCI  11

$$
MOZ066>068-077>081-088>096-101>105-301200-
...SOUTHWEST MISSOURI...

CITY           SKY/WX    TMP DP  RH WIND       PRES   REMARKS
SPRINGFIELD    CLEAR     23  19  85 N6        30.47F WCI  16
JOPLIN         CLEAR     24  21  88 CALM      30.52R

$$
MOZ032>034-039>042-045>050-055>058-069>072-301200-
...CENTRAL MISSOURI...

CITY           SKY/WX    TMP DP  RH WIND       PRES   REMARKS
COLUMBIA       CLEAR     24  20  84 N8        30.51R WCI  15
JEFFERSON CITY CLEAR     25  20  81 CALM      30.54R
ROLLA          CLEAR     25  20  81 NW8       30.47R WCI  16
SEDALIA        CLEAR     25  21  85 NW5       30.53R WCI  19
OSAGE BEACH    CLEAR     25  19  80 N5        30.51S WCI  19

$$
MOZ051-052-059>065-301200-
...EAST CENTRAL MISSOURI...

CITY           SKY/WX    TMP DP  RH WIND       PRES   REMARKS
ST LOUIS INTL  MOCLDY    30  19  63 N13       30.50R WCI  20
SPIRIT OF STL  CLOUDY    30  20  66 N8        30.50R WCI  22
ST CHARLES     CLOUDY    29  20  69 N10       30.51R WCI  20

$$
MOZ072>076-082>087-097>100-106>115-301200-
...SOUTH CENTRAL AND SOUTHEAST MISSOURI...

CITY           SKY/WX    TMP DP  RH WIND       PRES   REMARKS
CAPE GIRARDEAU CLOUDY    35  25  66 N8        30.45S WCI  29
FARMINGTON     CLEAR     28  19  69 NW7       30.48R WCI  21
POPLAR BLUFF   CLEAR     28  24  85 NW5       30.46R WCI  23
WEST PLAINS    CLEAR     27  21  78 NW5       30.46R WCI  22

$$



USA.gov is the U.S. government's official web portal to all federal, state and local government web resources and services.